Weather History for Norfolk, NE

Change the Weather History Date:

Saturday, March 23, 2013

  Actual Average Record
Temperature  
Mean Temperature 29 °F 40 °F  
Max Temperature 33 °F 52 °F 91 °F (1910)
Min Temperature 25 °F 29 °F 1 °F (1965)
Degree Days  
Heating Degree Days 36 25  
Month to date heating degree days 771 672  
Since 1 July heating degree days 5692 5765  
Cooling Degree Days 0 0  
Month to date cooling degree days 0 0  
Year to date cooling degree days 0 0  
Moisture  
Dew Point 26 °F    
Average Humidity 81    
Maximum Humidity 92    
Minimum Humidity 69    
Precipitation  
Precipitation 0.07 in 0.06 in 1.89 in (1987)
Month to date precipitation 1.09 1.18  
Year to date precipitation 1.99 2.53  
Snow  
Snow 0.50 in 0.20 in - ()
Month to date snowfall 5.2 3.9  
Since 1 July snowfall 20.1 26.7  
Snow Depth 1.00 in    
Sea Level Pressure  
Sea Level Pressure 30.10 in    
Wind  
Wind Speed 9 mph (NNE)    
Max Wind Speed 23 mph    
Max Gust Speed 30 mph    
Visibility 4 miles    
Events Fog , Snow    
T = Trace of Precipitation, MM = Missing Value Source: NWS Daily Summary

Daily Weather History Graph

Daily Weather History Graph

Search for Another Location

Airport:

Trip Planner

Search our weather history database for the weather conditions in past years. The results will help you decide how hot, cold, wet, or windy it might be!

Date:

Astronomy

Mar. 23, 2013 Rise Set
Actual Time 7:27 AM CDT 7:45 PM CDT
Civil Twilight 6:59 AM CDT 8:13 PM CDT
Nautical Twilight 6:26 AM CDT 8:46 PM CDT
Astronomical Twilight 5:53 AM CDT 9:20 PM CDT
Moon 4:10 PM CDT (3/23) 5:07 AM CDT (3/23)
Length of Visible Light 13h 14m
Length of Day
12h 18m
Waxing Gibbous, 85% of the Moon is Illuminated
Mar 23
Waxing Gibbous
Mar 27
Full
Apr 2
Last Quarter
Apr 10
New
Apr 18
First Quarter

Hourly Weather History & Observations

Time (CDT) Temp. Windchill Dew Point Humidity Pressure Visibility Wind Dir Wind Speed Gust Speed Precip Events Conditions
12:56 AM 28.9 °F - 24.1 °F 82% 30.07 in 10.0 mi Calm Calm - N/A   Overcast
1:56 AM 28.9 °F - 24.1 °F 82% 30.11 in 10.0 mi Calm Calm - N/A   Overcast
2:56 AM 30.0 °F 25.2 °F 21.9 °F 72% 30.09 in 10.0 mi NNE 4.6 mph - N/A   Overcast
3:56 AM 28.9 °F 22.8 °F 23.0 °F 78% 30.07 in 10.0 mi NNE 5.8 mph - N/A   Overcast
4:56 AM 28.9 °F 25.2 °F 23.0 °F 78% 30.09 in 10.0 mi NE 3.5 mph - N/A   Overcast
5:56 AM 28.9 °F - 23.0 °F 78% 30.11 in 10.0 mi Calm Calm - N/A   Overcast
6:56 AM 28.9 °F - 24.1 °F 82% 30.12 in 10.0 mi Calm Calm - N/A   Overcast
7:56 AM 28.0 °F - 25.0 °F 88% 30.13 in 9.0 mi Calm Calm - N/A   Overcast
8:37 AM 28.4 °F 24.6 °F 24.8 °F 86% 30.08 in 10.0 mi NNE 3.5 mph - N/A   Overcast
8:56 AM 28.9 °F 23.9 °F 24.1 °F 82% 30.15 in 10.0 mi North 4.6 mph - N/A   Overcast
9:56 AM 28.9 °F 21.9 °F 25.0 °F 85% 30.15 in 8.0 mi NNE 6.9 mph - N/A   Overcast
10:56 AM 30.0 °F 22.4 °F 25.0 °F 82% 30.15 in 6.0 mi NE 8.1 mph - N/A   Haze
11:56 AM 32.0 °F 24.8 °F 25.0 °F 75% 30.14 in 7.0 mi NNE 8.1 mph - N/A   Overcast
12:33 PM 32.0 °F 24.2 °F 24.8 °F 75% 30.09 in 5.0 mi NNE 9.2 mph - N/A   Haze
12:56 PM 32.0 °F 23.6 °F 25.0 °F 75% 30.13 in 5.0 mi NE 10.4 mph - N/A   Haze
1:49 PM 32.0 °F 24.8 °F 26.6 °F 80% 30.09 in 1.8 mi ENE 8.1 mph - 0.00 in Snow Light Snow
1:56 PM 32.0 °F 24.8 °F 26.1 °F 79% 30.13 in 1.0 mi NE 8.1 mph - 0.00 in Snow Light Snow
2:06 PM 30.2 °F 22.6 °F 26.6 °F 86% 30.08 in 0.8 mi NE 8.1 mph - 0.01 in Snow Light Snow
2:29 PM 30.2 °F 20.8 °F 28.4 °F 93% 30.07 in 0.5 mi NNE 11.5 mph - 0.02 in Fog , Snow Light Snow
2:48 PM 32.0 °F 23.0 °F 28.4 °F 87% 30.07 in 1.0 mi NE 11.5 mph - 0.02 in Snow Light Snow
2:56 PM 32.0 °F 23.0 °F 28.0 °F 85% 30.12 in 0.8 mi NE 11.5 mph - 0.03 in Snow Light Snow
3:03 PM 30.2 °F 21.3 °F 28.4 °F 93% 30.07 in 1.0 mi NE 10.4 mph - 0.00 in Snow Light Snow
3:29 PM 30.2 °F 21.3 °F 26.6 °F 86% 30.07 in 0.8 mi NE 10.4 mph - 0.00 in Snow Light Snow
3:36 PM 30.2 °F 20.8 °F 28.4 °F 93% 30.07 in 0.8 mi NE 11.5 mph - 0.00 in Snow Light Snow
3:45 PM 30.2 °F 21.3 °F 28.4 °F 93% 30.07 in 1.0 mi NNE 10.4 mph - 0.01 in Snow Light Snow
3:56 PM 30.9 °F 21.7 °F 28.0 °F 89% 30.12 in 0.8 mi NNE 11.5 mph - 0.01 in Snow Light Snow
4:09 PM 30.2 °F 21.3 °F 28.4 °F 93% 30.06 in 1.2 mi NNE 10.4 mph - 0.00 in Snow Light Snow
4:24 PM 30.2 °F 21.3 °F 28.4 °F 93% 30.07 in 2.0 mi NNE 10.4 mph - 0.00 in Snow Light Snow
4:36 PM 30.2 °F 18.9 °F 28.4 °F 93% 30.06 in 1.2 mi North 16.1 mph - 0.00 in Snow Light Snow
4:51 PM 30.2 °F 20.8 °F 28.4 °F 93% 30.07 in 2.0 mi North 11.5 mph - 0.01 in Snow Light Snow
4:56 PM 30.9 °F 21.7 °F 28.0 °F 89% 30.12 in 2.5 mi North 11.5 mph - 0.01 in Snow Light Snow
5:03 PM 30.2 °F 20.8 °F 28.4 °F 93% 30.07 in 1.5 mi North 11.5 mph - 0.00 in Snow Light Snow
5:17 PM 30.2 °F 21.9 °F 28.4 °F 93% 30.07 in 1.0 mi North 9.2 mph - 0.00 in Snow Light Snow
5:38 PM 30.2 °F 20.8 °F 28.4 °F 93% 30.07 in 1.0 mi North 11.5 mph - 0.00 in Snow Light Snow
5:56 PM 30.9 °F 21.2 °F 28.9 °F 92% 30.13 in 1.0 mi North 12.7 mph - 0.00 in Snow Light Snow
6:16 PM 30.2 °F 20.8 °F 28.4 °F 93% 30.07 in 1.0 mi North 11.5 mph - 0.00 in Snow Light Snow
6:25 PM 30.2 °F 19.8 °F 28.4 °F 93% 30.08 in 0.8 mi North 13.8 mph - 0.01 in Snow Light Snow
6:56 PM 30.0 °F 20.0 °F 28.0 °F 92% 30.14 in 1.0 mi North 12.7 mph - 0.01 in Snow Light Snow
7:30 PM 30.2 °F 19.8 °F 28.4 °F 93% 30.09 in 2.0 mi North 13.8 mph 21.9 mph 0.01 in Snow Light Snow
7:47 PM 30.2 °F 19.8 °F 26.6 °F 86% 30.10 in 2.5 mi North 13.8 mph - 0.01 in Snow Light Snow
7:56 PM 30.0 °F 20.0 °F 27.0 °F 88% 30.16 in 3.0 mi North 12.7 mph - 0.01 in Snow Light Snow
8:11 PM 30.2 °F 18.5 °F 26.6 °F 86% 30.10 in 3.0 mi North 17.3 mph - 0.00 in Snow Light Snow
8:25 PM 28.4 °F 17.5 °F 26.6 °F 93% 30.10 in 3.0 mi North 13.8 mph - 0.00 in Snow Light Snow
8:56 PM 28.9 °F 17.3 °F 25.0 °F 85% 30.16 in 4.0 mi North 16.1 mph 26.5 mph 0.00 in Snow Light Snow
9:56 PM 28.0 °F 16.5 °F 25.0 °F 88% 30.17 in 5.0 mi North 15.0 mph - N/A   Overcast
10:05 PM 28.4 °F 16.2 °F 24.8 °F 86% 30.11 in 6.0 mi North 17.3 mph - N/A   Overcast
10:12 PM 28.4 °F 17.0 °F 24.8 °F 86% 30.11 in 7.0 mi North 15.0 mph 21.9 mph N/A   Overcast
10:56 PM 27.0 °F 14.3 °F 23.0 °F 85% 30.17 in 3.0 mi North 17.3 mph 29.9 mph 0.00 in Snow Light Snow
11:56 PM 26.1 °F 12.7 °F 21.9 °F 84% 30.17 in 4.0 mi North 18.4 mph - 0.00 in Snow Light Snow